RS34S (SXC3-218 KUZBAS*) (53375 NORAD) Tracking and Keplerian Element Data

This shows tracking and keplerian element data for the satellite.

Feedback or suggestion? Click here.




ElementValue
Catalog53375
NameRS34S (SXC3-218 KUZBAS*)
Epoch Orbit745
Epoch Day270.21251543
Epoch Year2022
RAAN171.3237
Inclination97.4312
Eccentricity0.0003017
Argument of Perigee46.6191
Mean Anonmoly58.5998
Mean Motion15.2521879
Decay Rate8.649E-05
L11 53375U 22096F 22270.21251543 .00008649 00000+0 34708-3 0 9999
L22 53375 97.4312 171.3237 0003017 46.6191 58.5998 15.25218790 7453

Live tracking and technical data element details for RS34S (SXC3-218 KUZBAS*) (NORAD 53375). RS34S (SXC3-218 KUZBAS*) can be tracked NOW for your location showing map with azimuth and elevation plus other details from your city location.

Track the satellite on the map from your city or location and see movement details for azimuth, elevation, latitude, longitude, range, height, and movement on the map or in text.







IsCatalogInMostPopularTable: catalog: 53375, numindb: 1
Update: records affected: 1



GetName: 53375 RS34S (SXC3-218 KUZBAS*)

Hit Count: updated at: Thu, 29 Sep 2022 10:30:20 GMT